STARLINK-2732 (48646 NORAD) Tracking and Keplerian Element Data

This shows tracking and keplerian element data for the satellite.

Feedback or suggestion? Click here.




ElementValue
Catalog48646
NameSTARLINK-2732
Epoch Orbit2244
Epoch Day287.97867614
Epoch Year2021
RAAN134.41
Inclination53.0539
Eccentricity0.000189
Argument of Perigee69.6365
Mean Anonmoly290.4827
Mean Motion15.06384531
Decay Rate-2.547E-05
L11 48646U 21044J 21287.97867614 -.00002547 00000-0 -15220-3 0 9990
L22 48646 53.0539 134.4100 0001890 69.6365 290.4827 15.06384531 22441

Live tracking and technical data element details for STARLINK-2732 (NORAD 48646). STARLINK-2732 can be tracked NOW for your location showing map with azimuth and elevation plus other details from your city location.

Track the satellite on the map from your city or location and see movement details for azimuth, elevation, latitude, longitude, range, height, and movement on the map or in text.







IsCatalogInMostPopularTable: catalog: 48646, numindb: 32
Update: records affected: 1



GetName: 48646 STARLINK-2732

Hit Count: updated at: Tue, 19 Oct 2021 09:16:48 GMT